Weather History for KSJX - May, 2014

Change the Weather History Date:

Sunday, May 18, 2014

  Actual Average Record
Temperature  
Mean Temperature 54 °F -  
Max Temperature 64 °F 62 °F 80 °F (1962)
Min Temperature 43 °F 41 °F 27 °F (1973)
Degree Days  
Heating Degree Days 12    
Growing Degree Days 4 (Base 50)    
Moisture  
Dew Point 36 °F    
Average Humidity 57    
Maximum Humidity 71    
Minimum Humidity 37    
Precipitation  
Precipitation 0.00 in - - ()
Sea Level Pressure  
Sea Level Pressure 30.09 in    
Wind  
Wind Speed 10 mph (SSW)    
Max Wind Speed 16 mph    
Max Gust Speed 25 mph    
Visibility 10 miles    
Events      
Averages and records for this station are not official NWS values.
T = Trace of Precipitation, MM = Missing Value Source: NWS Daily Summary

Daily Weather History Graph

Daily Weather History Graph

Search for Another Location

Airport or City:

Trip Planner

Search our weather history database for the weather conditions in past years. The results will help you decide how hot, cold, wet, or windy it might be!

Date:

Astronomy

May. 18, 2014 Rise Set
Actual Time 6:07 AM EDT 9:10 PM EDT
Civil Twilight 5:32 AM EDT 9:45 PM EDT
Nautical Twilight 4:47 AM EDT 10:31 PM EDT
Astronomical Twilight 3:52 AM EDT 11:26 PM EDT
Moon 12:07 AM EDT (5/18) 9:58 AM EDT (5/18)
Length of Visible Light 16h 13m
Length of Day
15h 02m
Waning Gibbous, 81% of the Moon is Illuminated
May 18
Waning Gibbous
May 21
Last Quarter
May 28
New
Jun 5
First Quarter
Jun 13
Full

Hourly Weather History & Observations

Time (EDT) Temp. Windchill Dew Point Humidity Pressure Visibility Wind Dir Wind Speed Gust Speed Precip Events Conditions
12:15 AM 45.3 °F 39.3 °F 32.0 °F 60% 30.04 in 10.0 mi South 12.7 mph 17.3 mph N/A   Clear
12:35 AM 44.6 °F 39.2 °F 32.2 °F 62% 30.04 in 10.0 mi South 10.4 mph 16.1 mph N/A   Clear
12:55 AM 45.0 °F 40.1 °F 32.4 °F 61% 30.04 in 10.0 mi South 9.2 mph 18.4 mph N/A   Clear
1:15 AM 45.0 °F 39.7 °F 32.2 °F 61% 30.04 in 10.0 mi South 10.4 mph - N/A   Clear
1:35 AM 44.6 °F 40.7 °F 32.5 °F 63% 30.04 in 10.0 mi South 6.9 mph - N/A   Clear
1:55 AM 44.2 °F 40.3 °F 32.9 °F 64% 30.04 in 10.0 mi South 6.9 mph - N/A   Clear
2:15 AM 44.2 °F 40.3 °F 33.1 °F 65% 30.04 in 10.0 mi SSW 6.9 mph - N/A   Clear
2:35 AM 44.1 °F 40.1 °F 33.1 °F 65% 30.04 in 10.0 mi South 6.9 mph - N/A   Clear
2:55 AM 43.9 °F 39.9 °F 33.1 °F 66% 30.04 in 10.0 mi South 6.9 mph - N/A   Clear
3:14 AM 43.7 °F 40.3 °F 32.9 °F 66% 30.04 in 10.0 mi South 5.8 mph - N/A   Clear
3:35 AM 43.9 °F 39.9 °F 33.1 °F 66% 30.04 in 10.0 mi SSW 6.9 mph - N/A   Clear
3:55 AM 43.9 °F 39.3 °F 33.3 °F 66% 30.05 in 10.0 mi SSW 8.1 mph - N/A   Clear
4:15 AM 43.7 °F 39.7 °F 33.3 °F 67% 30.05 in 10.0 mi SSW 6.9 mph - N/A   Clear
4:35 AM 43.7 °F 39.1 °F 33.6 °F 68% 30.05 in 10.0 mi SSW 8.1 mph - N/A   Clear
4:55 AM 43.7 °F 38.6 °F 33.8 °F 68% 30.05 in 10.0 mi SSW 9.2 mph - N/A   Clear
5:15 AM 43.3 °F 39.2 °F 34.0 °F 70% 30.05 in 10.0 mi SSW 6.9 mph - N/A   Clear
5:35 AM 43.3 °F 38.6 °F 34.0 °F 70% 30.06 in 10.0 mi SSW 8.1 mph - N/A   Clear
5:55 AM 43.5 °F 38.9 °F 34.0 °F 69% 30.06 in 10.0 mi SSW 8.1 mph - N/A   Clear
6:15 AM 43.3 °F 38.1 °F 34.3 °F 71% 30.06 in 10.0 mi SW 9.2 mph - N/A   Clear
6:35 AM 43.7 °F 39.1 °F 34.7 °F 71% 30.06 in 10.0 mi SSW 8.1 mph - N/A   Clear
6:54 AM 44.2 °F 39.7 °F 34.7 °F 69% 30.07 in 10.0 mi SSW 8.1 mph - N/A   Clear
7:15 AM 44.6 °F 42.2 °F 34.9 °F 69% 30.07 in 10.0 mi SSW 4.6 mph - N/A   Clear
7:35 AM 45.5 °F 42.5 °F 35.4 °F 68% 30.07 in 10.0 mi SSW 5.8 mph - N/A   Clear
7:55 AM 47.7 °F - 35.4 °F 63% 30.07 in 10.0 mi SW 9.2 mph - N/A   Clear
8:35 AM 50.2 °F - 36.3 °F 59% 30.08 in 10.0 mi SSW 10.4 mph - N/A   Clear
8:55 AM 50.4 °F - 36.5 °F 59% 30.08 in 10.0 mi SW 10.4 mph 18.4 mph N/A   Clear
9:15 AM 51.1 °F - 36.9 °F 58% 30.08 in 10.0 mi SSW 12.7 mph 17.3 mph N/A   Clear
9:35 AM 52.7 °F - 37.2 °F 56% 30.09 in 10.0 mi SSW 13.8 mph 19.6 mph N/A   Clear
9:55 AM 53.2 °F - 37.6 °F 55% 30.09 in 10.0 mi SSW 12.7 mph 18.4 mph N/A   Clear
10:15 AM 54.3 °F - 37.8 °F 54% 30.09 in 10.0 mi SSW 12.7 mph 17.3 mph N/A   Clear
10:34 AM 54.5 °F - 37.9 °F 54% 30.09 in 10.0 mi SW 11.5 mph 18.4 mph N/A   Clear
10:55 AM 55.2 °F - 38.1 °F 53% 30.10 in 10.0 mi SSW 10.4 mph 20.7 mph N/A   Clear
11:15 AM 56.3 °F - 38.3 °F 51% 30.09 in 10.0 mi SSW 9.2 mph 17.3 mph N/A   Clear
11:35 AM 57.2 °F - 38.3 °F 49% 30.10 in 10.0 mi SW 12.7 mph 23.0 mph N/A   Clear
11:55 AM 56.7 °F - 38.1 °F 50% 30.10 in 10.0 mi SW 12.7 mph 19.6 mph N/A   Clear
12:15 PM 57.6 °F - 37.2 °F 47% 30.10 in 10.0 mi SSW 12.7 mph 21.9 mph N/A   Mostly Cloudy
12:35 PM 55.8 °F - 37.9 °F 51% 30.10 in 10.0 mi SSW 10.4 mph - N/A   Overcast
12:54 PM 59.2 °F - 37.9 °F 45% 30.10 in 10.0 mi SSW 13.8 mph 19.6 mph N/A   Mostly Cloudy
1:15 PM 59.9 °F - 37.4 °F 43% 30.09 in 10.0 mi SW 12.7 mph 17.3 mph N/A   Mostly Cloudy
1:35 PM 62.4 °F - 37.6 °F 40% 30.09 in 10.0 mi SW 10.4 mph 19.6 mph N/A   Scattered Clouds
1:55 PM 64.0 °F - 36.9 °F 37% 30.08 in 10.0 mi SW 9.2 mph - N/A   Scattered Clouds
2:15 PM 62.4 °F - 36.5 °F 38% 30.08 in 10.0 mi SW 13.8 mph 19.6 mph N/A   Clear
2:35 PM 62.4 °F - 36.5 °F 38% 30.09 in 10.0 mi SSW 12.7 mph 21.9 mph N/A   Clear
2:55 PM 62.6 °F - 36.7 °F 38% 30.09 in 10.0 mi SSW 13.8 mph 20.7 mph N/A   Clear
3:15 PM 61.0 °F - 37.0 °F 41% 30.10 in 10.0 mi SSW 16.1 mph 21.9 mph N/A   Clear
3:35 PM 59.4 °F - 36.7 °F 43% 30.10 in 10.0 mi SW 16.1 mph 23.0 mph N/A   Clear
3:55 PM 57.4 °F - 36.3 °F 45% 30.11 in 10.0 mi SW 13.8 mph 25.3 mph N/A   Clear
4:15 PM 53.2 °F - 37.0 °F 54% 30.12 in 10.0 mi SSW 13.8 mph 23.0 mph N/A   Mostly Cloudy
4:35 PM 51.1 °F - 36.9 °F 58% 30.12 in 10.0 mi SW 13.8 mph 20.7 mph N/A   Scattered Clouds
4:55 PM 51.1 °F - 37.0 °F 59% 30.12 in 10.0 mi WSW 10.4 mph 16.1 mph N/A   Clear
5:15 PM 55.2 °F - 36.3 °F 49% 30.12 in 10.0 mi SW 11.5 mph 19.6 mph N/A   Scattered Clouds
5:35 PM 57.6 °F - 36.5 °F 45% 30.12 in 10.0 mi WSW 11.5 mph 18.4 mph N/A   Scattered Clouds
5:55 PM 52.5 °F - 36.5 °F 54% 30.13 in 10.0 mi WSW 16.1 mph - N/A   Scattered Clouds
6:15 PM 50.2 °F - 36.7 °F 60% 30.13 in 10.0 mi SW 13.8 mph 20.7 mph N/A   Scattered Clouds
6:35 PM 50.7 °F - 36.5 °F 58% 30.13 in 10.0 mi SW 11.5 mph 19.6 mph N/A   Clear
6:54 PM 52.0 °F - 36.5 °F 56% 30.12 in 10.0 mi SW 12.7 mph 17.3 mph N/A   Clear
7:15 PM 52.9 °F - 36.1 °F 53% 30.12 in 10.0 mi SW 12.7 mph 23.0 mph N/A   Clear
7:35 PM 52.7 °F - 35.8 °F 53% 30.12 in 10.0 mi SW 12.7 mph 19.6 mph N/A   Clear
7:55 PM 51.8 °F - 36.3 °F 56% 30.12 in 10.0 mi SSW 15.0 mph 18.4 mph N/A   Scattered Clouds
8:15 PM 50.9 °F - 37.0 °F 59% 30.12 in 10.0 mi SW 12.7 mph 19.6 mph N/A   Scattered Clouds
8:35 PM 50.2 °F - 37.6 °F 62% 30.11 in 10.0 mi SSW 12.7 mph 18.4 mph N/A   Clear
8:55 PM 50.5 °F - 37.9 °F 62% 30.11 in 10.0 mi SSW 10.4 mph - N/A   Clear
9:15 PM 51.3 °F - 38.3 °F 61% 30.11 in 10.0 mi SW 12.7 mph 20.7 mph N/A   Clear
9:35 PM 50.9 °F - 37.9 °F 61% 30.11 in 10.0 mi SSW 13.8 mph 24.2 mph N/A   Scattered Clouds
9:55 PM 51.3 °F - 37.9 °F 60% 30.11 in 10.0 mi SSW 12.7 mph 18.4 mph N/A   Clear
10:15 PM 52.2 °F - 38.3 °F 59% 30.11 in 10.0 mi SSW 11.5 mph 18.4 mph N/A   Clear
10:35 PM 52.7 °F - 37.9 °F 57% 30.12 in 10.0 mi SSW 11.5 mph 18.4 mph N/A   Clear
10:55 PM 52.0 °F - 37.9 °F 59% 30.12 in 10.0 mi SW 10.4 mph - N/A   Clear
11:15 PM 51.3 °F - 37.6 °F 60% 30.12 in 10.0 mi SW 11.5 mph - N/A   Clear
11:35 PM 51.3 °F - 37.4 °F 59% 30.13 in 10.0 mi SW 9.2 mph 16.1 mph N/A   Mostly Cloudy
11:55 PM 50.0 °F - 37.4 °F 62% 30.13 in 10.0 mi SW 10.4 mph - N/A   Mostly Cloudy